Location: Waco, TX
(31.5480°N, 97.1670°W)
Time: 23:31:20
(UTC-05:00)

ISS - Pass Details

Date: 17 June 2018
Orbit: 402 x 407 km, 51.6° (Epoch: 25 June)

Event Time Altitude Azimuth Distance (km) Brightness Sun altitude
Rises 17:12:07 0° 335° (NNW) 2,325 0.3 40.5°
Reaches altitude 10° 17:15:36 10° 14° (NNE) 1,460 -1.0 39.8°
Maximum altitude 17:16:32 11° 31° (NNE) 1,406 -1.2 39.6°
Drops below altitude 10° 17:17:28 10° 48° (NE) 1,458 -1.2 39.4°
Sets 17:20:56 0° 87° (E) 2,312 -0.5 38.6°
